Location: Jedlicze
(49.7144°N, 21.6472°E)
Time: 23:38:53
(UTC+01:00)

ISS - Visible Passes

Search period start: 23 January 2019 00:00
Search period end: 02 February 2019 00:00
Orbit: 404 x 410 km, 51.6° (Epoch: 24 January)

Date Brightness Start Highest point End Pass type
(mag) Time Alt. Az. Time Alt. Az. Time Alt. Az.
23 Jan -1.6 18:39:47 10° SW 18:41:05 20° SSW 18:41:05 20° SSW visible
24 Jan -2.4 17:48:56 10° SSW 17:51:37 24° SE 17:52:04 23° SE visible
24 Jan -0.4 19:24:35 10° WSW 19:24:47 11° WSW 19:24:47 11° WSW visible
25 Jan -1.6 16:58:29 10° S 17:00:29 15° SE 17:02:28 10° E visible
25 Jan -2.8 18:33:15 10° WSW 18:35:41 44° SW 18:35:41 44° SW visible
26 Jan -3.2 17:42:04 10° SW 17:45:12 43° SSE 17:46:30 28° E visible
26 Jan -0.8 19:18:24 10° W 19:19:14 16° W 19:19:14 16° W visible
27 Jan -2.5 16:51:02 10° SSW 16:53:56 28° SE 16:56:51 10° E visible
27 Jan -3.6 18:26:57 10° WSW 18:30:00 72° WNW 18:30:00 72° WNW visible
28 Jan -3.8 17:35:33 10° WSW 17:38:51 76° SSE 17:40:43 24° ENE visible
28 Jan -1.1 19:12:13 10° W 19:13:26 20° WNW 19:13:26 20° WNW visible
29 Jan -3.7 18:20:44 10° W 18:24:01 63° N 18:24:07 63° N visible
30 Jan -3.8 17:29:14 10° W 17:32:32 74° NNW 17:34:47 19° ENE visible
30 Jan -1.5 19:05:58 10° WNW 19:07:30 24° WNW 19:07:30 24° WNW visible
31 Jan -3.7 18:14:29 10° W 18:17:46 59° N 18:18:09 54° NE visible
01 Feb -3.6 17:22:58 10° W 17:26:14 61° N 17:28:49 15° ENE visible
01 Feb -2.0 18:59:38 10° WNW 19:01:32 32° WNW 19:01:32 32° WNW visible
